Location: Franzen
(48.6167°N, 15.3833°E)
Time: 18:43:35
(UTC+00:00)

A-11 Canister half - Pass Details

Date: 29 July 2021
Orbit: 1515 x 1685 km, 47.2° (Epoch: 19 September)

Event Time Altitude Azimuth Distance (km) Brightness Sun altitude
Rises 15:55:25 0° 212° (SSW) 4,777 12.0 25.2°
Reaches altitude 10° 15:58:42 10° 206° (SSW) 3,819 11.5 24.7°
Maximum altitude 16:07:32 40° 141° (SE) 2,258 9.8 23.2°
Drops below altitude 10° 16:16:37 10° 76° (ENE) 3,936 10.7 21.7°
Sets 16:20:03 0° 70° (ENE) 4,937 11.1 21.2°
